• In Latvia
  • List of Countries
  • For 7 days
  • Water Temperature
  • Satellite Maps
  • Weather Map
  • Weather Widgets
  • user-avatar
    Login

    Hourly Weather Quito

    Today, 22 January, Sunday

    Time Temperature Precipitation Wind Pressure Humidity
    00:00 +16°C° 0 mm 2 mps 621 mmHg 83%
    01:00 +16°C° 0 mm 2 mps 621 mmHg 85%
    02:00 +15°C° 0 mm 2 mps 621 mmHg 84%
    03:00 +15°C° 0 mm 2 mps 620 mmHg 84%
    04:00 +14°C° 0 mm 2 mps 620 mmHg 84%
    05:00 +15°C° 0 mm 2 mps 621 mmHg 81%
    06:00 +16°C° 0 mm 2 mps 621 mmHg 78%
    07:00 +17°C° 0 mm 2 mps 622 mmHg 75%
    08:00 +20°C° 0 mm 2 mps 623 mmHg 64%
    09:00 +24°C° 0 mm 2 mps 624 mmHg 52%
    10:00 +28°C° 0 mm 2 mps 624 mmHg 41%
    11:00 +28°C° 0.2 mm 1 mps 624 mmHg 42%
    12:00 +28°C° 0.2 mm 1 mps 624 mmHg 43%
    13:00 +29°C° 0.2 mm 1 mps 623 mmHg 44%
    14:00 +28°C° 0.1 mm 1 mps 623 mmHg 47%
    15:00 +27°C° 0.1 mm 1 mps 622 mmHg 50%
    16:00 +27°C° 0.1 mm 1 mps 621 mmHg 52%
    17:00 +25°C° 0.1 mm 1 mps 621 mmHg 58%
    18:00 +23°C° 0.1 mm 1 mps 621 mmHg 64%
    19:00 +21°C° 0.1 mm 1 mps 620 mmHg 70%
    20:00 +20°C° 0.4 mm 1 mps 621 mmHg 72%
    21:00 +20°C° 0.4 mm 1 mps 621 mmHg 74%
    22:00 +20°C° 0.4 mm 1 mps 622 mmHg 76%
    23:00 +18°C° 0.2 mm 2 mps 621 mmHg 80%

    Tomorrow, 23 January, Monday

    Time Temperature Precipitation Wind Pressure Humidity
    00:00 +17°C° 0.2 mm 2 mps 621 mmHg 83%
    01:00 +16°C° 0.2 mm 2 mps 621 mmHg 87%
    02:00 +16°C° 0 mm 2 mps 620 mmHg 88%
    03:00 +15°C° 0 mm 2 mps 620 mmHg 89%
    04:00 +15°C° 0 mm 2 mps 620 mmHg 89%
    05:00 +16°C° 0 mm 2 mps 621 mmHg 87%
    06:00 +16°C° 0 mm 2 mps 621 mmHg 86%
    07:00 +18°C° 0 mm 1 mps 622 mmHg 84%
    08:00 +20°C° 0 mm 2 mps 623 mmHg 72%
    09:00 +23°C° 0 mm 2 mps 623 mmHg 61%
    10:00 +26°C° 0 mm 3 mps 624 mmHg 50%
    11:00 +27°C° 0.4 mm 2 mps 624 mmHg 49%
    12:00 +28°C° 0.4 mm 2 mps 623 mmHg 48%
    13:00 +28°C° 0.4 mm 2 mps 623 mmHg 47%
    14:00 +28°C° 0.4 mm 2 mps 622 mmHg 51%
    15:00 +27°C° 0.4 mm 2 mps 621 mmHg 56%
    16:00 +26°C° 0.4 mm 2 mps 621 mmHg 60%
    17:00 +24°C° 0.7 mm 2 mps 621 mmHg 68%
    18:00 +21°C° 0.7 mm 2 mps 620 mmHg 77%
    19:00 +19°C° 0.7 mm 2 mps 620 mmHg 85%
    20:00 +18°C° 1 mm 2 mps 621 mmHg 88%
    21:00 +18°C° 1 mm 2 mps 622 mmHg 90%
    22:00 +18°C° 1 mm 2 mps 622 mmHg 93%
    23:00 +17°C° 0.3 mm 2 mps 622 mmHg 94%

    Day after tomorrow, 24 January, Tuesday

    Time Temperature Precipitation Wind Pressure Humidity
    00:00 +17°C° 0.3 mm 2 mps 622 mmHg 95%
    01:00 +17°C° 0.3 mm 2 mps 621 mmHg 96%
    02:00 +16°C° 0.1 mm 2 mps 621 mmHg 96%
    03:00 +16°C° 0.1 mm 2 mps 621 mmHg 97%
    04:00 +15°C° 0.1 mm 2 mps 620 mmHg 97%
    05:00 +16°C° 0 mm 2 mps 621 mmHg 96%
    06:00 +16°C° 0 mm 2 mps 621 mmHg 95%
    07:00 +16°C° 0 mm 3 mps 622 mmHg 94%
    08:00 +18°C° 0 mm 3 mps 623 mmHg 83%
    09:00 +19°C° 0 mm 3 mps 624 mmHg 72%
    10:00 +21°C° 0 mm 4 mps 625 mmHg 61%
    11:00 +22°C° 0 mm 4 mps 624 mmHg 55%
    12:00 +25°C° 0 mm 4 mps 624 mmHg 49%
    13:00 +26°C° 0 mm 4 mps 624 mmHg 43%
    14:00 +26°C° 0 mm 4 mps 623 mmHg 44%
    15:00 +25°C° 0 mm 4 mps 623 mmHg 45%
    16:00 +25°C° 0 mm 4 mps 622 mmHg 45%
    17:00 +22°C° 0 mm 3 mps 622 mmHg 53%
    18:00 +20°C° 0 mm 3 mps 622 mmHg 61%
    19:00 +18°C° 0 mm 2 mps 622 mmHg 69%
    20:00 +17°C° 0 mm 2 mps 622 mmHg 72%
    21:00 +16°C° 0 mm 2 mps 622 mmHg 75%
    22:00 +15°C° 0 mm 2 mps 622 mmHg 77%
    23:00 +15°C° 0 mm 2 mps 622 mmHg 78%

    25 January, Wednesday

    Time Temperature Precipitation Wind Pressure Humidity
    00:00 +14°C° 0 mm 2 mps 621 mmHg 78%
    01:00 +14°C° 0 mm 2 mps 621 mmHg 79%
    02:00 +14°C° 0 mm 2 mps 620 mmHg 79%
    03:00 +13°C° 0 mm 2 mps 620 mmHg 79%
    04:00 +13°C° 0 mm 2 mps 620 mmHg 78%
    05:00 +14°C° 0 mm 2 mps 621 mmHg 75%
    06:00 +15°C° 0 mm 2 mps 621 mmHg 72%
    07:00 +14°C° 0 mm 3 mps 622 mmHg 68%
    08:00 +18°C° 0 mm 3 mps 623 mmHg 58%
    09:00 +21°C° 0 mm 3 mps 624 mmHg 49%
    10:00 +25°C° 0 mm 4 mps 625 mmHg 39%
    11:00 +27°C° 0 mm 4 mps 624 mmHg 37%
    12:00 +28°C° 0 mm 4 mps 624 mmHg 34%
    13:00 +29°C° 0 mm 4 mps 624 mmHg 32%
    14:00 +29°C° 0 mm 4 mps 623 mmHg 33%
    15:00 +28°C° 0 mm 4 mps 623 mmHg 35%
    16:00 +28°C° 0 mm 4 mps 622 mmHg 37%
    17:00 +26°C° 0 mm 3 mps 622 mmHg 45%
    18:00 +22°C° 0 mm 3 mps 622 mmHg 54%
    19:00 +20°C° 0 mm 2 mps 621 mmHg 62%
    20:00 +19°C° 0 mm 2 mps 622 mmHg 66%
    21:00 +17°C° 0 mm 2 mps 622 mmHg 70%
    22:00 +16°C° 0 mm 2 mps 622 mmHg 74%
    23:00 +16°C° 0 mm 2 mps 622 mmHg 78%

    26 January, Thursday

    Time Temperature Precipitation Wind Pressure Humidity
    00:00 +15°C° 0 mm 2 mps 622 mmHg 81%
    01:00 +14°C° 0 mm 2 mps 621 mmHg 85%
    02:00 +14°C° 0 mm 1 mps 621 mmHg 87%
    03:00 +13°C° 0 mm 1 mps 621 mmHg 89%
    04:00 +13°C° 0 mm 1 mps 620 mmHg 91%
    05:00 +14°C° 0 mm 1 mps 621 mmHg 87%
    06:00 +15°C° 0 mm 1 mps 622 mmHg 83%
    07:00 +16°C° 0 mm 1 mps 623 mmHg 79%
    08:00 +20°C° 0 mm 1 mps 624 mmHg 67%
    09:00 +23°C° 0 mm 2 mps 624 mmHg 55%
    10:00 +26°C° 0 mm 2 mps 625 mmHg 43%
    11:00 +28°C° 0 mm 2 mps 625 mmHg 39%
    12:00 +29°C° 0 mm 3 mps 624 mmHg 35%
    13:00 +30°C° 0 mm 3 mps 624 mmHg 31%
    14:00 +30°C° 0 mm 3 mps 624 mmHg 33%
    15:00 +30°C° 0 mm 3 mps 623 mmHg 35%
    16:00 +29°C° 0 mm 3 mps 622 mmHg 37%
    17:00 +27°C° 0 mm 2 mps 622 mmHg 43%
    18:00 +25°C° 0 mm 2 mps 622 mmHg 50%
    19:00 +21°C° 0 mm 2 mps 622 mmHg 57%
    20:00 +20°C° 0.1 mm 2 mps 622 mmHg 60%
    21:00 +21°C° 0.1 mm 1 mps 622 mmHg 64%
    22:00 +20°C° 0.1 mm 1 mps 623 mmHg 68%
    23:00 +19°C° 0 mm 1 mps 622 mmHg 70%

    27 January, Friday

    Time Temperature Precipitation Wind Pressure Humidity
    00:00 +19°C° 0 mm 1 mps 622 mmHg 73%
    01:00 +18°C° 0 mm 1 mps 621 mmHg 75%
    02:00 +16°C° 0 mm 1 mps 621 mmHg 78%
    03:00 +15°C° 0 mm 1 mps 621 mmHg 81%
    04:00 +15°C° 0 mm 1 mps 621 mmHg 84%
    05:00 +16°C° 0 mm 1 mps 621 mmHg 82%
    06:00 +16°C° 0 mm 1 mps 622 mmHg 80%
    07:00 +18°C° 0 mm 1 mps 623 mmHg 78%
    08:00 +21°C° 0 mm 1 mps 624 mmHg 65%
    09:00 +24°C° 0 mm 1 mps 625 mmHg 53%
    10:00 +27°C° 0 mm 1 mps 626 mmHg 40%
    11:00 +28°C° 0.1 mm 1 mps 625 mmHg 38%
    12:00 +29°C° 0.1 mm 1 mps 625 mmHg 36%
    13:00 +30°C° 0.1 mm 1 mps 624 mmHg 34%
    14:00 +30°C° 0.3 mm 2 mps 624 mmHg 37%
    15:00 +29°C° 0.3 mm 2 mps 623 mmHg 40%
    16:00 +28°C° 0.3 mm 2 mps 622 mmHg 42%
    17:00 +25°C° 0.1 mm 2 mps 622 mmHg 52%
    18:00 +23°C° 0.1 mm 2 mps 621 mmHg 62%
    19:00 +19°C° 0.1 mm 2 mps 621 mmHg 72%
    20:00 +19°C° 0 mm 1 mps 621 mmHg 73%
    21:00 +19°C° 0 mm 1 mps 621 mmHg 74%
    22:00 +18°C° 0 mm 1 mps 622 mmHg 75%
    23:00 +18°C° 0 mm 1 mps 621 mmHg 76%
    Show more